Location: Foulognes
(49.1413°N, 0.8183°W)
Time: 15:17:14
(UTC+00:00)

NOSS 3-2 (C) - Pass Details

Date: 21 October 2019
Orbit: 818 x 1394 km, 63.4° (Epoch: 11 November)

Event Time Altitude Azimuth Distance (km) Brightness Sun altitude
Rises 19:47:32 0° 224° (SW) 3,418 6.7 -27.5°
Reaches altitude 10° 19:49:53 10° 225° (SW) 2,531 6.0 -27.9°
Maximum altitude 19:55:45 81° 313° (NW) 972 3.4 -28.8°
Enters shadow 19:57:04 59° 28° (NNE) 1,123 3.6 -29.0°
